Location: Baller�as
(41.9020°N, 0.1554°W)
Time: 11:28:55
(UTC+00:00)

USA 32 - Pass Details

Date: 10 August 2020
Orbit: 778 x 782 km, 85.0° (Epoch: 20 September)

Event Time Altitude Azimuth Distance (km) Brightness Sun altitude
Exits shadow 21:27:19 26° 201° (SSW) 1,494 5.2 -22.2°
Maximum altitude 21:30:15 66° 276° (W) 852 4.3 -22.6°
Drops below altitude 10° 21:35:29 10° 359° (N) 2,342 7.2 -23.2°
Sets 21:37:52 0° 2° (N) 3,274 8.0 -23.5°
